Regional Weather Roundup
Issued by NWS Jackson, KY

Home | Current Version | Previous Version | Text Only | Print | Product List | Glossary Off
Versions: 1 2 3 4 5 6 7 8 9 10 11 12 13 14 15 16 17 18 19 20 21 22 23 24 25 26 27 28 29 30 31 32 33 34 35 36 37 38 39 40 41 42 43 44 45 46 47 48 49 50

000
ASUS43 KJKL 291610
RWRJKL

EAST KENTUCKY HOURLY WEATHER ROUNDUP
NATIONAL WEATHER SERVICE JACKSON KY
1200 PM EDT MON JUN 29 2015

NOTE: "FAIR" INDICATES FEW OR NO CLOUDS BELOW 12,000 FEET WITH
NO SIGNIFICANT WEATHER AND/OR OBSTRUCTIONS TO VISIBILITY.

* THESE REPORTS ARE NOT UNDER NWS QUALITY CONTROL AND MAY NOT
  REPORT WEATHER SUCH AS PRECIPITATION AND FOG.

KYZ079-080-083-085-087-088-110-112-115-119-120-291700
...EASTERN KENTUCKY...

CITY           SKY/WX    TMP DP  RH WIND       PRES   REMARKS
JACKSON        MOSUNNY   73  58  59 VRB7      29.94S
LONDON         CLOUDY    75  58  55 S10G17    29.94F
SOMERSET*      PTSUNNY   73  61  64 SW10G18   29.93F
MONTICELLO*    MOSUNNY   79  63  57 SW14G22   29.95F
MIDDLESBORO*   PTSUNNY   72  58  63 S8G16     30.00S
HARLAN APT*      N/A     73  54  49 S6        29.99F
HAZARD APT*    MOSUNNY   75  59  57 SW16G22   29.95F
BLACK MTN*       N/A     59  54  82 SE6         N/A
PIKEVILLE APT* PTSUNNY   72  57  60 S8        29.96F
BIG SANDY*     PTSUNNY   76  58  53 S12       29.94F
MOREHEAD APT*  CLOUDY    72  61  68 S10G16    29.91F
$$

KYZ035-036-041-042-044-050-067-078-099-291700
...CENTRAL KENTUCKY...

CITY           SKY/WX    TMP DP  RH WIND       PRES   REMARKS
MT STERLING*   MOSUNNY   75  61  60 SW15G24   29.89F
FLEMING/MASON* MOSUNNY   68  64  88 SE12      29.88F
DANVILLE*      SUNNY     77  63  61 SW16G23   29.89S
RICHMOND*      SUNNY     75  61  60 SW12G20   29.89F
LEXINGTON      CLOUDY    76  63  64 SW18G25   29.86S
FRANKFORT      PTSUNNY   76  64  66 SW17G24   29.84S
$$

KYZ091>093-OHZ055-061-077-WVZ005-015-034-035-042-291700
...SOUTHERN OHIO/WEST VIRGINIA...

CITY           SKY/WX    TMP DP  RH WIND       PRES   REMARKS
COVINGTON      CLOUDY    64  62  93 S6        29.84S
COLUMBUS       LGT RAIN  61  59  93 E6        29.92F
DAYTON         LGT RAIN  62  62 100 E10       29.86R FOG
WILMINGTON     CLOUDY    62  58  86 SE14G20   29.85F
HUNTINGTON     LGT RAIN  67  59  75 VRB5      29.93S
CHARLESTON     MOSUNNY   76  55  48 S9        29.95F
PINEVILLE*     MOSUNNY   74  58  58 MISG      30.05F
BECKLEY        PTSUNNY   71  51  49 SW12      30.04F
BLUEFIELD      MOSUNNY   73  49  42 SW8       30.06F
$$

VAZ002-007-008-TNZ017-027-036-066-071-291700
...SOUTHWEST VIRGINIA/EAST TENNESSEE...

CITY           SKY/WX    TMP DP  RH WIND       PRES   REMARKS
WISE*          PTSUNNY   70  50  49 S10       30.05S
JONESVILLE*      N/A    N/A N/A N/A MISG        N/A
ABINGDON*      CLOUDY    74  54  49 W8        30.05S
BRISTOL        MOSUNNY   76  53  44 S8        30.01F
KNOXVILLE      PTSUNNY   74  57  55 SW12      30.00S
OAK RIDGE      PTSUNNY   75  59  57 VRB5      30.01F
CROSSVILLE     PTSUNNY   74  62  66 SW9       30.01F
NASHVILLE      PTSUNNY   82  68  62 SW15G22   29.92F
$$

...KEY TO REMARKS...
VSB - VISIBILITY IN MILES
WCI - WIND CHILL INDEX
HX  - HEAT INDEX

$$


USA.gov is the U.S. government's official web portal to all federal, state and local government web resources and services.